Weather observations for the past three days for
Delano Municipal Airport
Imperial (Metric)
Date Time (pdt) Wind (mph) Vis. (mi.) Weather Sky Cond. Temperature (ºF) Relative Humidity Wind Chill (°F) Heat Index (°F) Pressure Precipitation (in)
Air Dwpt 6 hour altimeter (in) sea level (mb) 1 hr 3 hr 6 hr
Max. Min.
23 11:35 Calm 10.00 Fair CLR 94.5 52.5 24% 92 29.86 0.0
23 11:15 Calm 10.00 Fair CLR 93.4 50.2 23% 90 29.86 0.0
23 10:55 S 3 10.00 Fair CLR 91.8 50.2 91.9 71.8 24% 89 29.86 0.0
23 10:35 SW 5 10.00 Fair CLR 91.6 49.5 24% 88 29.86 0.0
23 10:15 Calm 10.00 Fair CLR 90.7 46.8 22% 87 29.86 0.0
23 09:55 Calm 10.00 Fair CLR 89.6 47.3 23% 86 29.86 0.0
23 09:35 Calm 10.00 Fair CLR 88.3 48 25% 85 29.86 0.0
23 09:15 Calm 10.00 Fair CLR 87.1 51.4 29% 85 29.86 0.0
23 08:55 Calm 10.00 Fair CLR 86.4 48.4 27% 84 29.86 0.0
23 08:35 Calm 10.00 Fair CLR 84.9 49.5 29% 83 29.86 0.0
23 08:15 Calm 10.00 Fair CLR 82.6 49.1 31% 81 29.86 0.0
23 07:55 Calm 10.00 Fair CLR 78.8 54.1 43% 79 29.86 0.0
23 07:35 Calm 10.00 Fair CLR 76.5 56.1 49% 78 29.85 0.0
23 07:15 Calm 10.00 Fair CLR 73.6 55.9 54% 29.85 0.0
23 06:55 Calm 10.00 Fair CLR 73 52.2 48% 29.85 0.0
23 06:35 Calm 10.00 Fair CLR 73 52.7 49% 29.84 0.0
23 06:15 Calm 10.00 Fair CLR 72.1 53.1 51% 29.84 0.0
23 05:55 Calm 10.00 Fair CLR 72.5 51.3 47% 29.84 0.0
23 05:35 Calm 10.00 Fair CLR 72 50.2 46% 29.84 0.0
23 05:15 Calm 10.00 Fair CLR 72.3 51.8 49% 29.83 0.0
23 04:55 Calm 10.00 Fair CLR 72.5 52.3 84.2 72.5 49% 29.82 0.0
23 04:35 Calm 10.00 Fair CLR 72.7 52.9 50% 29.82 0.0
23 04:15 Calm 10.00 Fair CLR 72.5 52.7 50% 29.82 0.0
23 03:55 SE 5 10.00 Fair CLR 73 53.6 51% 29.82 0.0
23 03:35 Calm 10.00 Fair CLR 74.5 53.6 48% 29.81 0.0
23 03:15 Calm 10.00 Fair CLR 78.4 48.2 35% 79 29.81 0.0
23 02:55 SW 3 10.00 Fair CLR 78.1 49.5 37% 79 29.81 0.0
23 02:35 Calm 10.00 Fair CLR 78.8 50 37% 79 29.81 0.0
23 02:15 Calm 10.00 Fair CLR 77.7 50.4 38% 78 29.81 0.0
23 01:55 S 3 10.00 Fair CLR 76.1 51.4 42% 78 29.8 0.0
23 01:35 SE 3 10.00 Fair CLR 77.2 50.5 39% 78 29.81 0.0
23 01:15 SE 3 10.00 Fair CLR 76.5 50.9 41% 78 29.8 0.0
23 00:55 E 6 10.00 Fair CLR 77.4 50 38% 78 29.8 0.0
23 00:35 Calm 10.00 Fair CLR 80.8 46.4 30% 80 29.8 0.0
23 00:15 Calm 10.00 Fair CLR 81 44.2 27% 80 29.8 0.0
22 23:55 Calm 10.00 Fair CLR 82.9 43.3 25% 81 29.79 0.0
22 23:35 W 3 10.00 Fair CLR 83.3 43 24% 81 29.78 0.0
22 23:15 W 3 10.00 Fair CLR 84 42.8 23% 81 29.78 0.0
22 22:55 W 6 10.00 Fair CLR 84.4 43.7 102.6 84.4 24% 82 29.77 0.0
22 22:35 Calm 10.00 Fair CLR 85.8 42.6 22% 83 29.77 0.0
22 22:15 Calm 10.00 Fair CLR 86.5 42.1 21% 83 29.77 0.0
22 21:55 Calm 10.00 Fair CLR 87.4 41.7 20% 84 29.77 0.0
22 21:35 W 3 10.00 Fair CLR 88.3 42.4 20% 85 29.76 0.0
22 21:15 W 6 10.00 Fair CLR 90 43 19% 86 29.75 0.0
22 20:55 W 7 10.00 Fair CLR 91.6 46.4 21% 88 29.75 0.0
22 20:35 W 8 10.00 Fair CLR 92.1 59.4 33% 92 29.74 0.0
22 20:15 W 6 10.00 Fair CLR 95.4 56.8 28% 94 29.73 0.0
22 19:55 N 3 10.00 Fair CLR 95.5 57.2 28% 94 29.72 0.0
22 19:35 N 5 10.00 Fair CLR 97.2 55.6 25% 96 29.72 0.0
22 19:15 N 5 10.00 Fair CLR 97.9 56.7 25% 97 29.72 0.0
22 18:55 NE 7 10.00 Fair CLR 98.1 58.8 27% 98 29.72 0.0
22 18:35 NE 5 10.00 Fair CLR 98.2 59.9 28% 98 29.72 0.0
22 18:15 NE 7 10.00 Fair CLR 99.9 58.8 26% 100 29.71 0.0
22 17:55 NE 6 10.00 Fair CLR 99.9 59.9 27% 100 29.71 0.0
22 17:35 NE 6 10.00 Fair CLR 100.8 57.2 24% 100 29.71 0.0
22 17:15 N 8 10.00 Fair CLR 101.7 54 20% 100 29.72 0.0
22 16:55 NE 8 10.00 Fair CLR 102.4 50.5 102.6 89.1 18% 100 29.72 0.0
22 16:35 NE 9 10.00 Fair CLR 102.4 50.5 18% 100 29.72 0.0
22 16:15 NE 9 10.00 Fair CLR 101.8 51.4 18% 99 29.73 0.0
22 15:55 NE 5 10.00 Fair CLR 102.2 48.4 16% 99 29.74 0.0
22 15:35 N 9 10.00 Fair CLR 101.1 49.8 18% 98 29.74 0.0
22 15:15 NE 9 10.00 Fair CLR 100.2 54.9 22% 99 29.75 0.0
22 14:55 NE 6 10.00 Fair CLR 99.7 54.3 22% 98 29.76 0.0
22 14:35 NE 7 10.00 Fair CLR 98.6 53.4 22% 96 29.77 0.0
22 14:15 NE 5 10.00 Fair CLR 99.9 49.5 18% 97 29.77 0.0
22 13:55 W 3 10.00 Fair CLR 99.1 49.1 18% 96 29.78 0.0
22 13:35 N 7 10.00 Fair CLR 97.5 48.9 19% 94 29.79 0.0
22 13:15 N 8 10.00 Fair CLR 97.3 50.5 21% 94 29.8 0.0
22 12:55 NW 6 10.00 Fair CLR 96.1 53.8 24% 94 29.8 0.0
22 12:35 W 7 10.00 Fair CLR 95.2 50.5 22% 92 29.8 0.0
22 12:15 W 3 10.00 Fair CLR 93.6 52.5 25% 91 29.81 0.0
22 11:55 Calm 10.00 Fair CLR 92.3 55.4 29% 90 29.81 0.0
22 11:35 W 3 10.00 Fair CLR 92.5 56.8 30% 91 29.82 0.0
22 11:15 N 3 10.00 Fair CLR 90.3 54.7 30% 88 29.83 0.0
22 10:55 NW 6 10.00 Fair CLR 89.8 56.1 89.8 68.5 32% 88 29.83 0.0
22 10:35 N 5 10.00 Fair CLR 87.8 57.9 36% 87 29.83 0.0
22 10:15 NE 3 10.00 Fair CLR 86 58.3 39% 85 29.84 0.0
22 09:55 NE 3 10.00 Fair CLR 85.1 57.2 39% 84 29.84 0.0
22 09:35 NE 3 10.00 Fair CLR 84.4 56.8 39% 84 29.84 0.0
22 09:15 Calm 10.00 Fair CLR 82 56.5 42% 82 29.84 0.0
22 08:55 Calm 10.00 Fair CLR 80.6 56.3 43% 81 29.84 0.0
22 08:35 Calm 10.00 Fair CLR 79.5 54.9 43% 80 29.84 0.0
22 08:15 Calm 10.00 Fair CLR 77.7 54 44% 79 29.85 0.0
22 07:55 Calm 10.00 Fair CLR 76.3 55.6 49% 78 29.84 0.0
22 07:35 Calm 10.00 Fair CLR 73.4 56.5 56% 29.84 0.0
22 07:15 Calm 10.00 Fair CLR 71.6 57.9 62% 29.83 0.0
22 06:55 Calm 10.00 Fair CLR 70 58.3 67% 29.83 0.0
22 06:35 Calm 10.00 Fair CLR 71.8 54.9 55% 29.82 0.0
22 06:15 Calm 10.00 Fair CLR 71.2 57 61% 29.82 0.0
22 05:55 Calm 10.00 Fair CLR 68.9 57.4 67% 29.82 0.0
22 05:35 Calm 7.00 Fair CLR 69.4 58.1 67% 29.81 0.0
22 05:15 Calm 5.00 Fair with Haze CLR 68.9 57.4 67% 29.81 0.0
22 04:55 Calm 4.00 Fair with Haze CLR 70 59 81.5 68.9 68% 29.81 0.0
22 04:35 SE 5 7.00 Fair CLR 69.1 57.4 66% 29.81 0.0
22 04:15 Calm 5.00 Fair with Haze CLR 71.1 58.5 65% 29.8 0.0
22 03:55 Calm 5.00 Fair with Haze CLR 71.4 58.5 64% 29.8 0.0
22 03:35 Calm 7.00 Fair CLR 71.6 59 65% 29.8 0.0
22 03:15 Calm 10.00 Fair CLR 71.4 60.8 69% 29.8 0.0
22 02:55 Calm 7.00 Fair CLR 72.1 59.5 65% 29.8 0.0
22 02:35 E 3 7.00 Fair CLR 72 59.2 64% 29.8 0.0
22 02:15 Calm 10.00 Fair CLR 72.5 59.2 63% 29.8 0.0
22 01:55 Calm 10.00 Fair CLR 74.5 60.8 63% 29.8 0.0
22 01:35 Calm 10.00 Fair CLR 78.6 56.3 46% 79 29.8 0.0
22 01:15 Calm 10.00 Fair CLR 78.8 56.5 46% 80 29.8 0.0
22 00:55 Calm 10.00 Fair CLR 78.4 58.8 51% 80 29.8 0.0
22 00:35 Calm 10.00 Fair CLR 76.6 60.6 58% 78 29.81 0.0
22 00:15 Calm 10.00 Fair CLR 76.3 61.3 60% 78 29.81 0.0
21 23:55 SE 3 10.00 Fair CLR 76.8 58.6 54% 79 29.81 0.0
21 23:35 Calm 10.00 Fair CLR 77.9 60.1 54% 79 29.81 0.0
21 23:15 Calm 10.00 Fair CLR 78.8 59.4 51% 80 29.81 0.0
21 22:55 Calm 10.00 Fair CLR 81 58.6 98.1 80.1 47% 81 29.81 0.0
21 22:35 Calm 10.00 Fair CLR 81 58.5 46% 81 29.81 0.0
21 22:15 Calm 10.00 Fair CLR 84.2 57.4 40% 84 29.81 0.0
21 21:55 Calm 10.00 Fair CLR 83.3 57.6 42% 83 29.81 0.0
21 21:35 Calm 10.00 Fair CLR 84.6 57.7 40% 84 29.8 0.0
21 21:15 Calm 10.00 Fair CLR 88 56.3 34% 86 29.79 0.0
21 20:55 N 3 10.00 Fair CLR 88.7 54.7 31% 87 29.79 0.0
21 20:35 Calm 10.00 Fair CLR 89.8 54.3 30% 88 29.79 0.0
21 20:15 N 3 10.00 Fair CLR 90.9 55.6 30% 89 29.78 0.0
21 19:55 NE 5 10.00 Fair CLR 90.7 58.3 34% 90 29.77 0.0
21 19:35 NE 7 10.00 Fair CLR 91.8 59.2 34% 91 29.77 0.0
21 19:15 NE 6 10.00 Fair CLR 93.4 57.7 30% 92 29.77 0.0
21 18:55 NE 5 10.00 Fair CLR 94.8 55.9 27% 93 29.77 0.0
21 18:35 NE 5 10.00 Fair CLR 97.3 45.1 17% 93 29.77 0.0
21 18:15 N 9 10.00 Fair CLR 96.8 46.4 18% 93 29.77 0.0
21 17:55 N 8 10.00 Fair CLR 97.2 47.3 18% 94 29.77 0.0
21 17:35 N 10 10.00 Fair CLR 97.9 46 17% 94 29.77 0.0
21 17:15 NE 9 10.00 Fair CLR 97.5 46.4 17% 94 29.78 0.0
21 16:55 N 9 10.00 Fair CLR 97.9 46.6 98.2 86.9 17% 94 29.78 0.0
21 16:35 N 8 10.00 Fair CLR 97.5 46.8 18% 94 29.79 0.0
21 16:15 N 7 10.00 Fair CLR 97.5 47.3 18% 94 29.79 0.0
21 15:55 N 9 10.00 Fair CLR 97.9 49.5 19% 95 29.79 0.0
21 15:15 N 9 10.00 Fair CLR 96.6 48.6 19% 93 29.81 0.0
21 14:35 NW 6 10.00 Fair CLR 95.2 45.7 18% 91 29.82 0.0
21 13:55 N 9 10.00 Fair CLR 94.6 45 18% 91 29.83 0.0
21 13:35 NW 6 10.00 Fair CLR 94.3 42.3 16% 90 29.84 0.0
21 13:15 NW 7 10.00 Fair CLR 93.7 42.4 17% 90 29.85 0.0
21 12:55 W 7 10.00 Fair CLR 92.5 43.2 18% 89 29.86 0.0
21 12:35 NW 5 10.00 Fair CLR 92.1 41.5 17% 88 29.87 0.0
21 12:15 NW 7 10.00 Fair CLR 90.7 41.9 18% 87 29.87 0.0
21 11:55 NW 7 10.00 Fair CLR 89.6 43.9 20% 86 29.88 0.0
21 11:35 NW 5 10.00 Fair CLR 88 44.2 22% 85 29.89 0.0
21 11:15 NW 7 10.00 Fair CLR 87.1 46.6 25% 84 29.89 0.0
21 10:55 NW 6 10.00 Fair CLR 86.7 46.6 86.9 68.2 25% 84 29.9 0.0
21 10:35 Calm 10.00 Fair CLR 85.3 47.1 27% 83 29.9 0.0
21 10:15 NW 3 10.00 Fair CLR 84 46.9 27% 82 29.9 0.0
21 09:55 NW 3 10.00 Fair CLR 83.1 48.7 30% 81 29.9 0.0
21 09:35 NW 5 10.00 Fair CLR 82 49.5 32% 81 29.91 0.0
21 09:15 NW 6 10.00 Fair CLR 81.3 48.6 32% 80 29.91 0.0
21 08:55 N 6 10.00 Fair CLR 80.6 48.2 32% 80 29.9 0.0
21 08:35 Calm 10.00 Fair CLR 79.7 48.6 34% 79 29.9 0.0
21 08:15 Calm 10.00 Fair CLR 79.7 48.9 34% 79 29.9 0.0
21 07:55 Calm 10.00 Fair CLR 77.4 50.2 39% 78 29.9 0.0
21 07:35 Calm 10.00 Fair CLR 75.6 49.6 40% 78 29.9 0.0
21 07:15 Calm 10.00 Fair CLR 75.4 49.8 41% 78 29.89 0.0
21 06:55 Calm 10.00 Fair CLR 72.5 50.9 47% 29.88 0.0
21 06:35 Calm 10.00 Fair CLR 73 50 44% 29.88 0.0
21 06:15 Calm 10.00 Fair CLR 69.8 52.7 55% 29.88 0.0
21 05:55 Calm 10.00 Fair CLR 68.4 55 63% 29.87 0.0
21 05:35 Calm 10.00 Fair CLR 68.9 56.7 65% 29.87 0.0
21 05:15 SE 3 10.00 Fair CLR 68.7 54.3 60% 29.87 0.0
21 04:55 Calm 10.00 Fair CLR 70 55.8 83.3 70 61% 29.86 0.0
21 04:35 Calm 10.00 Fair CLR 70.7 56.5 61% 29.86 0.0
21 04:15 Calm 10.00 Fair CLR 70.3 54.3 57% 29.86 0.0
21 03:55 Calm 10.00 Fair CLR 71.1 53.6 54% 29.86 0.0
21 03:35 Calm 10.00 Fair CLR 71.6 54.3 55% 29.86 0.0
21 03:15 Calm 10.00 Fair CLR 72.1 52.9 51% 29.86 0.0
21 02:55 S 3 10.00 Fair CLR 73 51.3 46% 29.86 0.0
21 02:35 Calm 10.00 Fair CLR 74.3 50.9 44% 29.85 0.0
21 02:15 Calm 10.00 Fair CLR 77.7 47.3 34% 78 29.85 0.0
21 01:55 Calm 10.00 Fair CLR 77.7 48.9 36% 78 29.85 0.0
21 01:35 Calm 10.00 Fair CLR 78.8 50.2 37% 79 29.85 0.0
21 01:15 Calm 10.00 Fair CLR 75.2 51.1 43% 78 29.85 0.0
21 00:55 Calm 10.00 Fair CLR 75.6 50.4 41% 78 29.85 0.0
21 00:35 Calm 10.00 Fair CLR 77.9 49.5 37% 78 29.85 0.0
21 00:15 Calm 10.00 Fair CLR 81 49.8 34% 80 29.85 0.0
20 23:55 Calm 10.00 Fair CLR 81 48.7 32% 80 29.85 0.0
20 23:35 Calm 10.00 Fair CLR 81.5 45.5 28% 80 29.85 0.0
20 23:15 Calm 10.00 Fair CLR 82.2 43 25% 80 29.85 0.0
20 22:55 Calm 10.00 Fair CLR 83.5 41 101.1 83.3 22% 81 29.84 0.0
20 22:35 Calm 10.00 Fair CLR 83.3 41.2 23% 81 29.84 0.0
20 22:15 NW 3 10.00 Fair CLR 84.2 41.2 22% 82 29.83 0.0
20 21:55 W 5 10.00 Fair CLR 85.1 40.8 21% 82 29.82 0.0
20 21:35 W 7 10.00 Fair CLR 86.4 41.4 21% 83 29.82 0.0
20 21:15 W 9 10.00 Fair CLR 88 44.4 22% 85 29.82 0.0
20 20:55 W 10 10.00 Fair CLR 89.2 50.7 27% 86 29.81 0.0
20 20:35 W 7 10.00 Fair CLR 90.7 55.8 31% 89 29.81 0.0
20 20:15 N 3 10.00 Fair CLR 94.1 55.2 27% 92 29.8 0.0
20 19:55 N 5 10.00 Fair CLR 96.6 52.9 23% 94 29.79 0.0
20 19:35 N 7 10.00 Fair CLR 96.8 52.5 22% 94 29.79 0.0
20 19:15 NE 5 10.00 Fair CLR 97.5 52 22% 95 29.78 0.0
20 18:55 NE 6 10.00 Fair CLR 98.2 50.5 20% 95 29.78 0.0
20 18:35 NE 6 10.00 Fair CLR 97.5 57 26% 96 29.78 0.0
20 18:15 NE 6 10.00 Fair CLR 100 50.4 19% 97 29.78 0.0
20 17:55 N 9 10.00 Fair CLR 100.6 49.5 18% 97 29.78 0.0
20 17:35 NE 7 10.00 Fair CLR 99.3 55 23% 98 29.78 0.0
20 17:15 NE 7 10.00 Fair CLR 99.7 54 22% 98 29.78 0.0
20 16:35 NE 7 10.00 Fair CLR 99.7 56.8 24% 99 29.79 0.0
20 16:15 NE 7 10.00 Fair CLR 101.8 47.7 16% 98 29.8 0.0
20 15:55 N 9 10.00 Fair CLR 101.8 48 16% 98 29.8 0.0
20 15:35 N 7 10.00 Fair CLR 101.1 47.5 16% 97 29.81 0.0
20 15:15 N 13 G 18 10.00 Fair CLR 101.3 46.8 16% 98 29.82 0.0
20 14:55 Calm 10.00 Fair CLR 100.4 49.3 18% 97 29.82 0.0
20 14:35 N 6 10.00 Fair CLR 101.1 43.7 14% 97 29.83 0.0
20 14:15 N 5 10.00 Fair CLR 100 44.2 15% 96 29.84 0.0
20 13:55 Calm 10.00 Fair CLR 98.8 46.6 17% 95 29.84 0.0
20 13:35 NW 7 10.00 Fair CLR 98.4 45.5 16% 94 29.85 0.0
20 13:15 N 6 10.00 Fair CLR 98.2 46.8 17% 94 29.86 0.0
20 12:55 Calm 10.00 Fair CLR 96.8 49.1 20% 93 29.86 0.0
20 12:35 NW 5 10.00 Fair CLR 96.3 49.8 21% 93 29.87 0.0
20 12:15 W 5 10.00 Fair CLR 95.4 46.8 19% 92 29.87 0.0
20 11:55 N 3 10.00 Fair CLR 94.8 45 18% 91 29.88 0.0
Date Time (pdt) Wind (mph) Vis. (mi.) Weather Sky Cond. Air Dwpt Max. Min. Relative Humidity Wind Chill (°F) Heat Index (°F) altimeter (in) sea level (mb) 1 hr 3 hr 6 hr
6 hour
Temperature (ºF) Pressure Precipitation (in)